Meteo pe oră la Bolshie Kuliki

Astăzi, 18 Mai, Marţi

Timp Temperatura Precipitaţii Vânt Presiune Umiditate
00:00 +18°C° 0 mm 4 m/s 747 mmHg 65%
01:00 +18°C° 0 mm 4 m/s 747 mmHg 63%
02:00 +17°C° 0 mm 4 m/s 747 mmHg 61%
03:00 +17°C° 0 mm 4 m/s 747 mmHg 60%
04:00 +17°C° 0 mm 4 m/s 746 mmHg 62%
05:00 +17°C° 0 mm 4 m/s 746 mmHg 64%
06:00 +17°C° 0 mm 4 m/s 746 mmHg 67%
07:00 +19°C° 0 mm 4 m/s 746 mmHg 62%
08:00 +21°C° 0 mm 5 m/s 746 mmHg 58%
09:00 +23°C° 0 mm 5 m/s 746 mmHg 54%
10:00 +26°C° 0 mm 5 m/s 746 mmHg 50%
11:00 +27°C° 0 mm 5 m/s 746 mmHg 47%
12:00 +28°C° 0 mm 5 m/s 746 mmHg 43%
13:00 +28°C° 0 mm 5 m/s 746 mmHg 45%
14:00 +29°C° 0 mm 6 m/s 746 mmHg 46%
15:00 +29°C° 0 mm 6 m/s 745 mmHg 48%
16:00 +28°C° 0 mm 6 m/s 745 mmHg 51%
17:00 +27°C° 0 mm 6 m/s 745 mmHg 54%
18:00 +26°C° 0 mm 6 m/s 745 mmHg 57%
19:00 +25°C° 0 mm 5 m/s 745 mmHg 59%
20:00 +23°C° 0 mm 5 m/s 744 mmHg 61%
21:00 +21°C° 0 mm 5 m/s 744 mmHg 63%
22:00 +21°C° 0 mm 5 m/s 744 mmHg 63%
23:00 +20°C° 0 mm 5 m/s 744 mmHg 64%

Mâine, 19 Mai, Miercuri

Timp Temperatura Precipitaţii Vânt Presiune Umiditate
00:00 +19°C° 0 mm 5 m/s 744 mmHg 64%
01:00 +18°C° 0 mm 4 m/s 744 mmHg 66%
02:00 +18°C° 0 mm 4 m/s 744 mmHg 67%
03:00 +17°C° 0 mm 3 m/s 744 mmHg 69%
04:00 +17°C° 0 mm 3 m/s 744 mmHg 71%
05:00 +17°C° 0 mm 3 m/s 744 mmHg 74%
06:00 +17°C° 0 mm 3 m/s 744 mmHg 76%
07:00 +18°C° 0 mm 3 m/s 744 mmHg 73%
08:00 +20°C° 0 mm 3 m/s 745 mmHg 71%
09:00 +21°C° 0 mm 3 m/s 745 mmHg 68%
10:00 +24°C° 0 mm 3 m/s 745 mmHg 64%
11:00 +25°C° 0 mm 3 m/s 745 mmHg 59%
12:00 +26°C° 0 mm 4 m/s 745 mmHg 55%
13:00 +27°C° 0 mm 4 m/s 745 mmHg 54%
14:00 +27°C° 0 mm 4 m/s 744 mmHg 52%
15:00 +28°C° 0 mm 5 m/s 744 mmHg 50%
16:00 +27°C° 0 mm 5 m/s 744 mmHg 55%
17:00 +27°C° 0 mm 4 m/s 743 mmHg 59%
18:00 +26°C° 0 mm 4 m/s 743 mmHg 64%
19:00 +23°C° 0.4 mm 4 m/s 743 mmHg 69%
20:00 +21°C° 0.4 mm 4 m/s 743 mmHg 74%
21:00 +19°C° 0.4 mm 4 m/s 743 mmHg 79%
22:00 +18°C° 1 mm 3 m/s 744 mmHg 85%
23:00 +17°C° 1 mm 3 m/s 744 mmHg 90%

Poimâine, 20 Mai, Joi

Timp Temperatura Precipitaţii Vânt Presiune Umiditate
00:00 +16°C° 1 mm 2 m/s 744 mmHg 96%
01:00 +16°C° 0.4 mm 2 m/s 744 mmHg 96%
02:00 +16°C° 0.4 mm 2 m/s 744 mmHg 96%
03:00 +16°C° 0.4 mm 3 m/s 744 mmHg 96%
04:00 +14°C° 0.1 mm 3 m/s 744 mmHg 95%
05:00 +14°C° 0.1 mm 3 m/s 744 mmHg 95%
06:00 +14°C° 0.1 mm 3 m/s 745 mmHg 94%
07:00 +15°C° 0 mm 4 m/s 745 mmHg 88%
08:00 +17°C° 0 mm 4 m/s 745 mmHg 82%
09:00 +17°C° 0 mm 5 m/s 745 mmHg 77%
10:00 +19°C° 0 mm 5 m/s 745 mmHg 70%
11:00 +20°C° 0 mm 6 m/s 745 mmHg 64%
12:00 +21°C° 0 mm 6 m/s 745 mmHg 57%
13:00 +20°C° 0.2 mm 6 m/s 745 mmHg 60%
14:00 +20°C° 0.2 mm 6 m/s 745 mmHg 62%
15:00 +20°C° 0.2 mm 6 m/s 745 mmHg 65%
16:00 +19°C° 0.2 mm 5 m/s 745 mmHg 70%
17:00 +19°C° 0.2 mm 5 m/s 745 mmHg 74%
18:00 +17°C° 0.2 mm 5 m/s 745 mmHg 79%
19:00 +17°C° 0 mm 4 m/s 745 mmHg 82%
20:00 +15°C° 0 mm 4 m/s 746 mmHg 86%
21:00 +13°C° 0 mm 3 m/s 746 mmHg 89%
22:00 +13°C° 0 mm 4 m/s 746 mmHg 90%
23:00 +13°C° 0 mm 4 m/s 746 mmHg 91%

21 Mai, Vineri

Timp Temperatura Precipitaţii Vânt Presiune Umiditate
00:00 +13°C° 0 mm 4 m/s 746 mmHg 92%
01:00 +13°C° 0 mm 4 m/s 746 mmHg 91%
02:00 +13°C° 0 mm 4 m/s 746 mmHg 91%
03:00 +13°C° 0 mm 4 m/s 746 mmHg 90%
04:00 +13°C° 0 mm 5 m/s 746 mmHg 90%
05:00 +13°C° 0 mm 5 m/s 746 mmHg 89%
06:00 +13°C° 0 mm 5 m/s 746 mmHg 89%
07:00 +13°C° 0 mm 6 m/s 747 mmHg 82%
08:00 +14°C° 0 mm 7 m/s 747 mmHg 75%
09:00 +14°C° 0 mm 7 m/s 748 mmHg 67%
10:00 +15°C° 0 mm 7 m/s 748 mmHg 65%
11:00 +16°C° 0 mm 7 m/s 748 mmHg 62%
12:00 +16°C° 0 mm 7 m/s 748 mmHg 59%
13:00 +16°C° 0 mm 7 m/s 749 mmHg 59%
14:00 +16°C° 0 mm 7 m/s 749 mmHg 60%
15:00 +17°C° 0 mm 7 m/s 750 mmHg 61%
16:00 +16°C° 0 mm 6 m/s 750 mmHg 64%
17:00 +16°C° 0 mm 5 m/s 750 mmHg 67%
18:00 +17°C° 0 mm 4 m/s 751 mmHg 69%
19:00 +16°C° 0 mm 3 m/s 751 mmHg 75%
20:00 +13°C° 0 mm 3 m/s 752 mmHg 80%
21:00 +13°C° 0 mm 2 m/s 752 mmHg 86%
22:00 +12°C° 0 mm 2 m/s 752 mmHg 86%
23:00 +12°C° 0 mm 2 m/s 752 mmHg 85%

22 Mai, Sâmbătă

Timp Temperatura Precipitaţii Vânt Presiune Umiditate
00:00 +10°C° 0 mm 2 m/s 752 mmHg 85%
01:00 +10°C° 0 mm 2 m/s 753 mmHg 84%
02:00 +10°C° 0 mm 2 m/s 753 mmHg 82%
03:00 +12°C° 0 mm 2 m/s 753 mmHg 81%
04:00 +10°C° 0.8 mm 3 m/s 753 mmHg 85%
05:00 +10°C° 0.8 mm 3 m/s 753 mmHg 89%
06:00 +10°C° 0.8 mm 4 m/s 753 mmHg 93%
07:00 +10°C° 1.1 mm 4 m/s 753 mmHg 92%
08:00 +10°C° 1.1 mm 5 m/s 753 mmHg 91%
09:00 +10°C° 1.1 mm 6 m/s 753 mmHg 90%
10:00 +13°C° 0 mm 6 m/s 753 mmHg 84%
11:00 +15°C° 0 mm 6 m/s 753 mmHg 78%
12:00 +17°C° 0 mm 6 m/s 752 mmHg 72%
13:00 +19°C° 0 mm 6 m/s 752 mmHg 71%
14:00 +20°C° 0 mm 6 m/s 751 mmHg 70%
15:00 +21°C° 0 mm 5 m/s 751 mmHg 69%
16:00 +21°C° 0 mm 5 m/s 750 mmHg 73%
17:00 +20°C° 0 mm 5 m/s 750 mmHg 78%
18:00 +19°C° 0 mm 5 m/s 750 mmHg 82%
19:00 +17°C° 0 mm 5 m/s 750 mmHg 86%
20:00 +17°C° 0 mm 4 m/s 750 mmHg 89%
21:00 +15°C° 0 mm 4 m/s 750 mmHg 93%
22:00 +15°C° 0 mm 4 m/s 750 mmHg 94%
23:00 +16°C° 0 mm 3 m/s 749 mmHg 94%

23 Mai, Duminică

Timp Temperatura Precipitaţii Vânt Presiune Umiditate
00:00 +16°C° 0 mm 3 m/s 749 mmHg 95%
01:00 +16°C° 0 mm 3 m/s 749 mmHg 95%
02:00 +16°C° 0 mm 2 m/s 749 mmHg 95%
03:00 +16°C° 0 mm 2 m/s 749 mmHg 94%
04:00 +16°C° 0.2 mm 2 m/s 749 mmHg 93%
05:00 +16°C° 0.2 mm 2 m/s 748 mmHg 93%
06:00 +17°C° 0.2 mm 2 m/s 748 mmHg 92%
07:00 +19°C° 0 mm 3 m/s 748 mmHg 84%
08:00 +20°C° 0 mm 3 m/s 748 mmHg 76%
09:00 +22°C° 0 mm 3 m/s 748 mmHg 69%
10:00 +25°C° 0 mm 4 m/s 748 mmHg 64%
11:00 +26°C° 0 mm 4 m/s 748 mmHg 59%
12:00 +28°C° 0 mm 5 m/s 747 mmHg 54%
13:00 +28°C° 0 mm 5 m/s 747 mmHg 55%
14:00 +29°C° 0 mm 5 m/s 747 mmHg 56%
15:00 +29°C° 0 mm 5 m/s 746 mmHg 56%
16:00 +28°C° 0 mm 5 m/s 746 mmHg 59%
17:00 +28°C° 0 mm 5 m/s 746 mmHg 62%
18:00 +27°C° 0 mm 5 m/s 746 mmHg 65%
19:00 +26°C° 0 mm 4 m/s 746 mmHg 71%
20:00 +23°C° 0 mm 4 m/s 746 mmHg 77%
21:00 +21°C° 0 mm 3 m/s 746 mmHg 84%
22:00 +20°C° 0 mm 3 m/s 746 mmHg 88%
23:00 +19°C° 0 mm 3 m/s 747 mmHg 91%
Arată mai mult

Formular de consimțământ

Meteoprog și furnizorii noștri de servicii pot stoca și accesa date personale, precum cookies, identificatori de dispozitiv sau alte tehnologii similare pe dispozitivul dumneavoastră și procesa astfel de date pentru a personaliza conținutul și reclamele, dar și pentru a oferi caracteristici de social media și pentru a analiza traficul.

  • Stocarea și/sau accesarea informațiilor pe dispozitivul dumneavoastră

    Cookies, identificatori de dispozitiv sau alte informații pot fi stocate sau accesate pe dispozitiv în scopurile indicate mai sus.

  • Reclame și conținut personalizat, evaluarea reclamelor și a conținutului, informații despre audiențe și dezvoltarea produselor

    Reclamele și conținutul pot fi personalizate pe baza unui profil. Pot fi adăugate date suplimentare pentru a personaliza mai bine reclamele și conținutul. Performanța reclamelor și conținutului poate fi măsurată. Pot fi obținute informații despre utilizatorii care au văzut reclamele și conținutul. Aceste date pot fi utilizate pentru a dezvolta sau îmbunătăți experiența utilizatorilor, sistemele și software-ul.

Dând clic pe ‘Sunt de acord’, permiteți utilizarea cookie-urilor menționate, a identificatorilor de dispozitiv, balizelor web sau altor tehnologii similare. Setările pot fi modificate din browser-ul dispozitivului dumneavoastră.

În anumite scopuri, interesele legitime pot prima asupra consimțământului. Puteți citi mai multe informații în acest sens în Politica privind Confidențialitatea Datelor și Cookie.